Location: Dulzura
(32.6442°N, 116.7814°W)
Time: 07:48:10
(UTC+00:00)

CZ-2C R/B - Visible Passes

Search period start: 07 July 2022 00:00
Search period end: 17 July 2022 00:00
Orbit: 785 x 869 km, 98.2° (Epoch: 06 July)

Date Brightness Start Highest point End Pass type
(mag) Time Alt. Az. Time Alt. Az. Time Alt. Az.
07 Jul 3.1 12:09:09 10° SSE 12:14:40 72° ENE 12:20:16 10° N visible
08 Jul 3.9 11:50:46 10° SE 11:56:04 48° ENE 12:01:27 10° N visible
09 Jul 4.7 11:32:39 10° SE 11:37:32 32° ENE 11:42:27 10° N visible
10 Jul 5.3 11:14:53 10° ESE 11:19:02 22° ENE 11:23:13 10° NNE visible
11 Jul 5.7 10:57:37 10° E 11:00:36 15° ENE 11:03:35 10° NNE visible
12 Jul 2.9 12:15:59 10° SSE 12:21:34 86° ENE 12:27:13 10° N visible
13 Jul 3.5 11:57:30 10° SSE 12:02:57 57° ENE 12:08:28 10° N visible
14 Jul 4.3 11:39:16 10° SE 11:44:24 38° ENE 11:49:33 10° N visible
15 Jul 5.0 11:21:21 10° ESE 11:25:53 26° ENE 11:30:25 10° NNE visible
16 Jul 5.5 11:03:49 10° ESE 11:07:25 18° ENE 11:11:00 10° NNE visible
